Temp
14 14 14 14 14 13 13 13 13 12 13 13 13 13 14 14 14 14 13 14 14 14 13 13 13 13 12 12 12 12 11 11 10
13 14 14 14 13 13 12 13 12 12 12 13 13 13 13 13 13 13 13 13 13 13 13 13 12 13 12 12 10 10 10 9 9
13 14 14 13 13 12 12 12 12 12 11 12 12 12 13 13 13 13 13 13 13 13 13 13 13 12 12 11 10 10 10 10 9
14 14 13 12 12 12 12 12 12 11 11 11 11 12 12 12 13 12 12 12 13 13 12 12 12 11 11 10 10 9 9 9 10
12 13 12 12 11 12 12 12 11 11 11 10 11 11 12 12 12 12 12 12 12 12 12 12 12 11 11 9 9 9 10 10 11
11 11 11 11 11 12 12 12 11 10 10 10 10 10 11 11 12 11 11 12 13 12 12 12 12 11 10 9 9 10 10 11 10
10 11 11 12 11 12 12 11 11 11 10 10 10 10 10 11 11 11 12 12 12 12 12 12 11 11 10 9 9 10 10 10 10
9 11 11 11 11 12 12 11 11 11 11 10 10 10 10 11 11 11 11 12 12 12 12 12 11 11 10 9 10 10 10 9 9
10 11 11 11 11 11 11 11 11 11 11 10 10 10 11 11 11 12 11 12 12 12 12 12 12 11 10 10 10 10 9 9 9
9 10 11 11 11 10 11 11 11 10 10 10 10 10 11 12 11 12 12 12 11 12 12 12 12 11 10 10 10 9 9 8 8
10 10 10 10 10 10 10 11 10 10 10 10 10 10 11 11 11 11 11 11 11 12 12 11 11 10 10 9 9 9 8 9 8
10 9 9 9 9 9 10 10 10 10 10 10 10 10 10 11 11 11 11 11 11 12 12 11 10 10 10 10 9 10 10 7 9
10 9 9 9 9 10 10 10 10 10 10 10 10 10 10 10 10 10 11 10 11 11 11 11 9 10 10 9 9 9 11 10 9
10 11 10 9 9 10 10 10 9 9 10 9 10 9 10 10 10 10 10 10 11 11 11 10 10 10 9 9 9 9 10 10 9
10 10 10 10 10 10 10 10 9 9 9 9 9 9 9 10 10 10 10 10 11 11 11 10 10 10 10 9 9 9 10 10 9
11 10 10 10 10 10 10 9 9 9 9 9 9 9 9 9 10 10 10 10 11 10 11 10 10 10 9 9 9 9 9 9 9
11 11 10 10 10 10 10 9 8 9 9 9 9 9 9 9 10 10 10 10 10 10 10 10 10 10 10 9 9 9 9 9 9
11 10 10 10 10 10 10 9 9 9 9 9 9 9 9 9 9 10 10 10 10 9 9 9 9 9 9 10 9 9 9 8 7
11 10 10 10 10 10 10 10 9 9 9 9 9 9 9 9 9 10 10 9 9 10 9 9 9 9 9 9 9 8 8 8 7
11 10 10 10 10 10 10 9 9 9 9 9 9 8 8 9 9 10 10 10 9 9 9 9 9 9 9 8 8 8 7 7 7
Height
1564 1566 1568 1569 1570 1571 1572 1574 1575 1576 1578 1579 1581 1583 1584 1586 1587 1588 1590 1591 1592 1592 1593 1593 1593 1592 1593 1593 1593 1593 1592 1591 1591
1564 1566 1568 1569 1570 1571 1572 1574 1576 1577 1579 1580 1581 1583 1585 1587 1589 1590 1592 1593 1593 1594 1594 1594 1594 1594 1594 1594 1596 1595 1594 1594 1594
1563 1566 1567 1569 1570 1571 1572 1574 1576 1578 1580 1581 1582 1584 1586 1588 1590 1591 1593 1594 1594 1595 1596 1596 1596 1596 1595 1596 1598 1598 1598 1597 1597
1562 1565 1568 1570 1571 1572 1572 1574 1577 1579 1580 1582 1582 1583 1586 1588 1590 1592 1593 1595 1596 1597 1597 1597 1597 1598 1598 1599 1599 1601 1600 1600 1601
1561 1565 1568 1569 1570 1572 1573 1575 1577 1580 1582 1583 1584 1584 1586 1588 1590 1592 1594 1595 1597 1598 1598 1599 1600 1600 1600 1601 1601 1602 1604 1603 1604
1561 1564 1567 1569 1570 1571 1573 1576 1578 1581 1583 1584 1585 1586 1587 1589 1590 1592 1594 1596 1597 1598 1598 1600 1601 1601 1601 1602 1604 1605 1606 1606 1605
1559 1564 1566 1568 1570 1572 1574 1576 1579 1581 1583 1585 1586 1587 1589 1590 1592 1593 1595 1597 1598 1599 1599 1601 1602 1602 1603 1604 1607 1608 1608 1607 1607
1558 1562 1565 1567 1570 1572 1574 1577 1579 1582 1584 1586 1587 1587 1590 1592 1593 1594 1596 1598 1599 1600 1601 1602 1604 1604 1605 1606 1608 1608 1610 1610 1609
1558 1562 1565 1567 1570 1572 1574 1577 1580 1582 1585 1586 1587 1589 1592 1593 1594 1596 1597 1599 1600 1601 1602 1604 1605 1606 1607 1608 1609 1609 1611 1611 1611
1557 1560 1563 1566 1569 1571 1574 1577 1580 1583 1585 1587 1589 1591 1593 1595 1596 1597 1598 1600 1602 1603 1604 1605 1605 1607 1609 1608 1610 1610 1611 1612 1612
1555 1558 1562 1565 1568 1570 1573 1576 1579 1582 1585 1587 1589 1592 1593 1595 1597 1598 1600 1602 1603 1605 1606 1605 1606 1608 1610 1610 1610 1611 1612 1612 1612
1552 1556 1560 1563 1566 1568 1572 1575 1578 1582 1585 1587 1589 1592 1593 1595 1597 1599 1600 1602 1604 1606 1606 1605 1607 1609 1611 1611 1612 1612 1612 1612 1613
1550 1554 1557 1560 1563 1566 1570 1574 1577 1581 1584 1586 1589 1591 1592 1595 1597 1599 1601 1603 1605 1607 1607 1607 1608 1610 1612 1611 1613 1613 1613 1614 1613
1548 1552 1555 1559 1562 1564 1568 1572 1576 1579 1582 1585 1588 1590 1592 1593 1595 1598 1600 1603 1605 1607 1608 1609 1610 1612 1612 1613 1613 1614 1615 1614 1614
1546 1550 1553 1556 1559 1562 1566 1570 1574 1578 1581 1584 1586 1589 1591 1593 1595 1597 1600 1602 1604 1606 1608 1610 1611 1612 1613 1613 1614 1615 1615 1614 1615
1543 1547 1550 1553 1556 1560 1563 1567 1572 1575 1579 1582 1585 1588 1591 1592 1594 1596 1598 1600 1602 1605 1606 1608 1610 1611 1613 1613 1615 1615 1615 1615 1614
1539 1543 1546 1550 1553 1556 1559 1564 1568 1572 1576 1580 1584 1587 1590 1590 1592 1594 1596 1598 1600 1602 1604 1606 1608 1610 1611 1612 1613 1614 1615 1615 1615
1535 1539 1543 1546 1549 1552 1556 1560 1565 1569 1573 1577 1580 1583 1584 1586 1589 1591 1593 1595 1597 1598 1601 1603 1605 1607 1608 1610 1611 1612 1612 1614 1614
1530 1535 1539 1543 1546 1548 1552 1557 1561 1566 1569 1574 1576 1578 1580 1583 1585 1587 1590 1591 1593 1595 1597 1600 1602 1604 1606 1607 1608 1609 1610 1610 1612
1525 1530 1534 1539 1542 1545 1549 1553 1557 1561 1565 1568 1571 1575 1577 1579 1581 1582 1585 1587 1589 1591 1594 1597 1598 1600 1602 1603 1605 1606 1607 1607 1608
Wind_Speed
19 14 11 11 8 8 9 13 12 13 14 14 13 14 14 14 15 14 14 16 14 15 15 14 14 12 9 10 8 8 7 10 17
17 14 11 10 10 8 11 14 13 11 12 13 13 14 15 14 15 16 16 15 16 15 13 12 11 8 4 6 13 11 16 15 17
18 14 13 13 12 10 12 15 14 13 13 13 12 14 15 16 15 16 16 15 13 13 10 7 5 2 0 9 15 13 13 20 21
18 15 17 15 12 10 13 16 14 13 13 11 10 12 15 16 16 15 14 12 10 10 8 7 5 5 9 15 16 13 14 20 23
16 21 18 16 12 9 14 16 14 13 11 9 9 11 12 14 15 16 14 11 9 10 7 6 5 6 11 14 13 18 21 20 18
21 25 18 16 11 11 16 16 14 12 9 8 9 10 14 14 15 17 15 12 9 13 11 9 6 5 9 17 18 22 21 18 16
19 23 17 15 11 13 15 17 15 12 11 10 7 8 17 14 13 16 15 17 17 17 12 8 6 5 12 18 20 16 19 13 11
22 26 21 19 15 14 15 18 15 13 11 11 8 8 19 14 15 19 20 18 18 15 8 4 5 5 15 19 19 15 12 9 6
29 23 20 19 15 13 14 18 16 14 11 10 10 17 17 14 15 16 14 19 19 11 7 1 1 5 18 17 15 14 10 6 5
24 23 22 21 18 14 16 19 17 15 13 12 10 16 15 14 14 13 20 19 14 7 3 4 1 12 16 15 11 11 7 4 5
28 25 23 21 18 15 17 20 18 18 14 12 11 11 16 15 16 16 15 14 9 4 4 4 5 18 16 12 9 7 5 4 8
23 26 24 23 22 18 18 22 20 19 15 13 10 8 11 17 15 15 14 10 8 3 4 1 14 18 14 10 7 5 3 7 8
20 25 26 22 19 24 23 24 23 20 15 14 13 10 9 13 20 15 14 13 9 5 5 9 15 17 8 7 7 2 1 5 7
18 22 23 20 18 21 24 26 24 21 18 17 14 12 10 11 15 16 16 15 11 7 5 12 14 9 7 11 5 5 4 4 5
18 23 24 21 20 22 24 26 25 21 20 17 16 14 11 13 13 14 15 16 14 9 8 13 8 6 12 12 5 9 7 4 4
20 24 25 23 21 21 25 28 25 24 22 19 17 15 13 13 16 16 15 18 17 14 10 17 10 9 12 11 7 7 5 1 2
21 23 25 24 22 22 27 30 28 25 25 22 16 15 14 16 17 19 19 16 23 22 17 17 16 13 11 10 6 5 6 3 3
24 24 24 24 23 23 27 30 30 28 28 25 16 11 11 16 19 22 20 22 20 24 17 18 19 18 14 13 10 8 7 7 9
28 27 25 24 22 24 27 29 30 29 28 27 25 16 10 12 12 23 23 24 22 23 23 20 20 21 19 17 15 10 7 7 11
31 28 27 28 26 22 26 30 30 28 28 28 28 24 17 15 12 16 26 26 22 24 23 22 25 24 24 23 18 16 13 8 10
Wind_Direction
170 170 173 173 189 192 172 165 150 149 154 154 158 158 147 136 131 125 118 121 123 113 111 111 112 111 101 82 82 88 81 72 87
190 187 185 177 174 189 198 181 166 158 158 155 155 156 159 151 140 129 125 124 121 117 114 117 115 109 94 80 84 77 89 100 93
194 189 183 180 183 203 180 175 171 155 146 138 149 162 161 159 153 142 133 133 133 125 123 122 114 107 115 84 93 92 98 90 90
196 185 172 176 195 214 192 170 165 150 140 133 131 156 166 169 166 159 151 159 153 134 129 126 106 104 73 103 112 113 105 92 86
175 164 172 184 194 211 176 166 159 146 144 129 122 131 158 170 172 177 168 180 163 139 150 141 113 88 113 123 111 106 99 93 105
171 165 176 190 206 192 176 169 161 152 144 136 125 123 140 142 151 164 172 197 180 153 154 126 110 95 132 116 108 102 108 119 130
176 172 183 194 193 182 179 172 168 166 157 148 141 146 142 139 145 149 156 139 139 149 146 121 101 112 120 116 116 110 126 142 139
177 168 178 191 185 179 180 177 174 172 160 150 151 146 154 151 143 140 139 145 152 155 146 116 91 86 111 112 119 136 145 150 155
175 174 186 189 187 187 188 183 178 176 164 151 134 141 140 162 148 149 156 158 157 158 142 165 336 87 122 135 144 142 164 178 132
170 180 193 192 191 199 190 186 181 179 169 158 140 154 157 163 161 144 150 158 157 151 283 285 227 138 136 160 167 171 172 157 115
184 185 187 191 196 199 192 188 182 179 176 170 161 162 173 172 177 153 159 163 168 171 294 251 154 142 153 170 173 187 202 181 113
198 190 194 198 203 203 197 189 183 180 179 164 165 174 175 189 177 176 173 179 180 183 8 149 140 148 166 189 204 176 147 131 116
201 198 197 203 210 212 202 190 185 186 183 173 178 190 186 186 195 193 188 186 185 128 47 144 146 164 182 195 167 189 122 136 112
209 205 199 202 205 195 195 190 191 191 187 181 186 190 192 191 192 200 198 185 201 188 98 145 155 187 192 189 193 337 251 148 130
210 206 204 205 205 201 196 193 191 195 187 186 191 190 198 194 193 195 197 202 206 203 181 173 160 164 178 204 243 336 299 172 149
207 201 205 206 207 205 199 192 195 194 192 188 196 202 208 205 208 206 210 209 213 212 210 193 181 177 201 230 272 331 348 256 171
209 204 204 205 205 206 203 198 193 199 194 193 195 204 224 229 219 220 222 223 221 213 199 205 210 205 209 226 252 305 339 305 295
214 207 206 205 209 212 208 205 206 202 197 198 196 204 218 222 218 219 218 224 223 223 211 217 219 222 224 238 250 264 306 315 286
217 212 209 209 212 213 213 210 212 214 213 206 216 219 207 203 217 220 222 225 222 229 228 226 225 234 241 239 245 243 274 308 302
218 212 213 213 216 218 218 216 215 216 219 218 215 220 222 221 218 221 225 233 233 228 231 241 248 235 236 243 240 249 259 275 306